| time (UTC) | temp F | wind direction | speed MPH | gust MPH | rain 1hr in | rain 24hr in | rain mn in | humidity % | barometer mb |
| 20260906015517 | 72 | 90 | 5.0 | 9.0 | 0.00 | 0.01 | 0.01 | 89 | 1017.7 |
| 20260906014517 | 72 | 113 | 4.0 | 11.0 | 0.00 | 0.01 | 0.01 | 88 | 1017.6 |
| 20260906013517 | 73 | 90 | 4.0 | 12.0 | 0.00 | 0.01 | 0.01 | 88 | 1017.4 |
| 20260906012517 | 73 | 90 | 4.0 | 7.0 | 0.00 | 0.01 | 0.01 | 88 | 1017.2 |
| 20260906011557 | 73 | 90 | 5.0 | 9.0 | 0.00 | 0.01 | 0.01 | 88 | 1016.9 |
| 20260906010517 | 73 | 90 | 5.0 | 9.0 | 0.00 | 0.01 | 0.01 | 87 | 1016.8 |
| 20260906005517 | 73 | 90 | 3.0 | 7.0 | 0.00 | 0.01 | 0.01 | 87 | 1016.7 |
| 20260906004537 | 73 | 68 | 2.0 | 7.0 | 0.00 | 0.01 | 0.01 | 87 | 1016.7 |
| 20260906003517 | 73 | 90 | 3.0 | 6.0 | 0.00 | 0.01 | 0.01 | 88 | 1016.6 |
| 20260906002537 | 73 | 68 | 1.0 | 3.0 | 0.00 | 0.01 | 0.01 | 89 | 1016.5 |
| 20260906001537 | 73 | 90 | 3.0 | 7.0 | 0.00 | 0.01 | 0.01 | 89 | 1016.5 |
| 20260906000517 | 73 | 68 | 2.0 | 4.0 | 0.00 | 0.01 | 0.01 | 90 | 1016.7 |
| 20260905235537 | 73 | 68 | 4.0 | 9.0 | 0.00 | 0.01 | 0.01 | 90 | 1016.6 |
| 20260905234517 | 74 | 90 | 2.0 | 4.0 | 0.00 | 0.01 | 0.01 | 87 | 1016.8 |
| 20260905233517 | 74 | 0.0 | 2.0 | 0.00 | 0.01 | 0.01 | 86 | 1016.9 | |
| 20260905232559 | 74 | 0.0 | 0.0 | 0.00 | 0.01 | 0.01 | 85 | 1017.1 | |
| 20260905231517 | 75 | 90 | 1.0 | 3.0 | 0.00 | 0.01 | 0.01 | 86 | 1017.2 |
| 20260905230517 | 75 | 0.0 | 0.0 | 0.00 | 0.01 | 0.01 | 87 | 1017.5 | |
| 20260905225537 | 75 | 0.0 | 0.0 | 0.00 | 0.01 | 0.01 | 87 | 1017.6 | |
| 20260905224517 | 75 | 45 | 2.0 | 4.0 | 0.00 | 0.01 | 0.01 | 84 | 1017.5 |
| 20260905223517 | 75 | 68 | 2.0 | 5.0 | 0.00 | 0.01 | 0.01 | 84 | 1017.3 |
| 20260905222517 | 76 | 68 | 3.0 | 5.0 | 0.00 | 0.01 | 0.01 | 84 | 1017.1 |
| 20260905221517 | 76 | 68 | 2.0 | 4.0 | 0.00 | 0.01 | 0.01 | 83 | 1017.2 |
| 20260905220517 | 76 | 45 | 1.0 | 4.0 | 0.00 | 0.01 | 0.01 | 83 | 1017.3 |
| 20260905215537 | 77 | 45 | 1.0 | 4.0 | 0.00 | 0.01 | 0.01 | 82 | 1017.4 |
| 20260905214517 | 77 | 338 | 1.0 | 3.0 | 0.00 | 0.01 | 0.01 | 83 | 1017.6 |
| 20260905213517 | 76 | 0.0 | 2.0 | 0.00 | 0.01 | 0.01 | 83 | 1017.7 | |
| 20260905212517 | 77 | 315 | 1.0 | 4.0 | 0.00 | 0.01 | 0.01 | 82 | 1017.6 |
| 20260905211517 | 76 | 68 | 1.0 | 4.0 | 0.00 | 0.01 | 0.01 | 81 | 1017.5 |
| 20260905210517 | 77 | 68 | 2.0 | 4.0 | 0.00 | 0.01 | 0.01 | 80 | 1017.8 |
| 20260905205517 | 77 | 90 | 3.0 | 7.0 | 0.00 | 0.01 | 0.01 | 80 | 1017.7 |
| 20260905204517 | 77 | 45 | 2.0 | 7.0 | 0.00 | 0.01 | 0.01 | 82 | 1017.6 |
| 20260905203516 | 76 | 68 | 4.0 | 8.0 | 0.00 | 0.01 | 0.01 | 81 | 1017.6 |
| 20260905202516 | 76 | 315 | 1.0 | 4.0 | 0.00 | 0.01 | 0.01 | 82 | 1017.6 |
| 20260905201517 | 76 | 68 | 3.0 | 7.0 | 0.00 | 0.01 | 0.01 | 83 | 1017.7 |
| 20260905200517 | 76 | 68 | 4.0 | 9.0 | 0.00 | 0.01 | 0.01 | 83 | 1018.0 |
| 20260905195537 | 76 | 90 | 5.0 | 8.0 | 0.00 | 0.01 | 0.01 | 81 | 1017.8 |
| 20260905194516 | 77 | 68 | 2.0 | 6.0 | 0.00 | 0.01 | 0.01 | 83 | 1018.1 |
| 20260905193536 | 76 | 90 | 5.0 | 11.0 | 0.00 | 0.01 | 0.01 | 84 | 1017.8 |
| 20260905192516 | 76 | 68 | 5.0 | 8.0 | 0.00 | 0.01 | 0.01 | 82 | 1018.0 |
| 20260905191537 | 76 | 90 | 6.0 | 11.0 | 0.00 | 0.01 | 0.01 | 84 | 1017.9 |
| 20260905190516 | 76 | 68 | 4.0 | 10.0 | 0.00 | 0.01 | 0.01 | 84 | 1017.9 |
| 20260905185518 | 76 | 90 | 6.0 | 11.0 | 0.00 | 0.01 | 0.01 | 83 | 1018.0 |
| 20260905184517 | 77 | 45 | 5.0 | 9.0 | 0.00 | 0.01 | 0.01 | 82 | 1018.0 |
| 20260905183536 | 77 | 90 | 5.0 | 11.0 | 0.00 | 0.01 | 0.01 | 80 | 1018.1 |
| 20260905182516 | 78 | 68 | 5.0 | 11.0 | 0.00 | 0.01 | 0.01 | 83 | 1018.1 |
| 20260905181516 | 77 | 68 | 4.0 | 9.0 | 0.00 | 0.01 | 0.01 | 82 | 1018.1 |
| 20260905180516 | 76 | 90 | 4.0 | 8.0 | 0.00 | 0.01 | 0.01 | 85 | 1018.4 |
| 20260905175516 | 76 | 68 | 4.0 | 8.0 | 0.00 | 0.01 | 0.01 | 85 | 1018.5 |
| 20260905174516 | 76 | 68 | 5.0 | 10.0 | 0.00 | 0.02 | 0.01 | 84 | 1018.3 |
| 20260905173516 | 76 | 45 | 3.0 | 8.0 | 0.00 | 0.04 | 0.01 | 84 | 1018.4 |
| 20260905172516 | 77 | 68 | 1.0 | 6.0 | 0.00 | 0.04 | 0.01 | 85 | 1018.5 |
| 20260905171516 | 76 | 68 | 3.0 | 9.0 | 0.00 | 0.05 | 0.01 | 86 | 1018.4 |
| 20260905170516 | 77 | 90 | 3.0 | 7.0 | 0.00 | 0.06 | 0.01 | 85 | 1018.3 |
| 20260905165516 | 77 | 68 | 4.0 | 8.0 | 0.00 | 0.07 | 0.01 | 84 | 1018.4 |
| 20260905164516 | 77 | 68 | 3.0 | 8.0 | 0.00 | 0.22 | 0.01 | 85 | 1018.3 |
| 20260905163556 | 76 | 68 | 4.0 | 9.0 | 0.00 | 0.35 | 0.01 | 83 | 1018.2 |
| 20260905162516 | 77 | 90 | 6.0 | 13.0 | 0.00 | 0.36 | 0.01 | 81 | 1018.4 |
| 20260905161516 | 76 | 68 | 4.0 | 7.0 | 0.00 | 0.36 | 0.01 | 85 | 1018.2 |
| 20260905160516 | 75 | 68 | 3.0 | 7.0 | 0.00 | 0.36 | 0.01 | 89 | 1018.2 |
| 20260905155516 | 75 | 68 | 5.0 | 9.0 | 0.00 | 0.36 | 0.01 | 90 | 1018.2 |
| 20260905154516 | 74 | 68 | 5.0 | 10.0 | 0.00 | 0.36 | 0.01 | 94 | 1018.1 |
| 20260905153516 | 74 | 68 | 3.0 | 6.0 | 0.00 | 0.36 | 0.01 | 97 | 1018.0 |
| 20260905152516 | 73 | 68 | 2.0 | 4.0 | 0.00 | 0.36 | 0.01 | 98 | 1018.0 |
| 20260905151516 | 72 | 68 | 3.0 | 7.0 | 0.00 | 0.36 | 0.01 | 98 | 1017.9 |
| 20260905150516 | 72 | 45 | 3.0 | 6.0 | 0.00 | 0.36 | 0.01 | 99 | 1017.7 |
| 20260905145516 | 72 | 68 | 3.0 | 8.0 | 0.00 | 0.36 | 0.01 | 99 | 1017.7 |
| 20260905144558 | 72 | 68 | 4.0 | 7.0 | 0.00 | 0.37 | 0.01 | 99 | 1017.5 |
| 20260905143556 | 71 | 45 | 3.0 | 6.0 | 0.00 | 0.37 | 0.01 | 99 | 1017.5 |
| 20260905142516 | 71 | 68 | 3.0 | 7.0 | 0.00 | 0.37 | 0.01 | 99 | 1017.4 |
| 20260905141516 | 71 | 68 | 3.0 | 6.0 | 0.00 | 0.37 | 0.01 | 99 | 1017.3 |
| 20260905140516 | 71 | 45 | 5.0 | 10.0 | 0.00 | 0.37 | 0.01 | 98 | 1017.3 |
| 20260905135516 | 71 | 68 | 3.0 | 11.0 | 0.00 | 0.37 | 0.01 | 99 | 1017.2 |
| 20260905134536 | 71 | 90 | 3.0 | 8.0 | 0.00 | 0.37 | 0.01 | 99 | 1016.9 |
| 20260905133516 | 71 | 68 | 2.0 | 6.0 | 0.00 | 0.37 | 0.01 | 98 | 1016.7 |
| 20260905132516 | 71 | 90 | 2.0 | 7.0 | 0.00 | 0.37 | 0.01 | 99 | 1016.5 |
| 20260905131516 | 71 | 68 | 3.0 | 6.0 | 0.01 | 0.37 | 0.01 | 99 | 1016.6 |
| 20260905130516 | 71 | 90 | 2.0 | 4.0 | 0.01 | 0.37 | 0.01 | 99 | 1016.6 |
| 20260905125516 | 71 | 45 | 2.0 | 4.0 | 0.01 | 0.37 | 0.01 | 99 | 1016.5 |
| 20260905124536 | 71 | 68 | 4.0 | 9.0 | 0.01 | 0.37 | 0.01 | 99 | 1016.3 |
| 20260905123516 | 71 | 68 | 3.0 | 6.0 | 0.01 | 0.37 | 0.01 | 99 | 1016.3 |
| 20260905122516 | 71 | 45 | 2.0 | 7.0 | 0.01 | 0.37 | 0.01 | 99 | 1016.5 |
| 20260905121516 | 71 | 0.0 | 1.0 | 0.00 | 0.36 | 0.00 | 99 | 1016.3 | |
| 20260905120536 | 70 | 0.0 | 3.0 | 0.00 | 0.36 | 0.00 | 99 | 1016.1 | |
| 20260905115516 | 70 | 45 | 1.0 | 3.0 | 0.00 | 0.36 | 0.00 | 98 | 1015.9 |
| 20260905114516 | 70 | 0.0 | 0.0 | 0.00 | 0.36 | 0.00 | 99 | 1016.0 | |
| 20260905113536 | 70 | 0.0 | 2.0 | 0.00 | 0.36 | 0.00 | 98 | 1015.9 | |
| 20260905112516 | 70 | 0.0 | 2.0 | 0.00 | 0.36 | 0.00 | 99 | 1015.6 | |
| 20260905111517 | 69 | 68 | 3.0 | 5.0 | 0.00 | 0.36 | 0.00 | 99 | 1015.2 |
| 20260905110516 | 69 | 0.0 | 0.0 | 0.00 | 0.36 | 0.00 | 98 | 1015.1 | |
| 20260905105516 | 69 | 0.0 | 0.0 | 0.00 | 0.36 | 0.00 | 98 | 1015.0 | |
| 20260905104516 | 69 | 0.0 | 1.0 | 0.00 | 0.41 | 0.00 | 98 | 1015.0 | |
| 20260905103517 | 69 | 0.0 | 2.0 | 0.00 | 0.41 | 0.00 | 98 | 1014.7 | |
| 20260905102636 | 69 | 68 | 2.0 | 3.0 | 0.00 | 0.41 | 0.00 | 98 | 1014.7 |
| 20260905101516 | 69 | 68 | 1.0 | 3.0 | 0.00 | 0.41 | 0.00 | 98 | 1014.7 |
| 20260905100516 | 68 | 0.0 | 0.0 | 0.00 | 0.41 | 0.00 | 98 | 1014.6 | |
| 20260905095516 | 68 | 0.0 | 0.0 | 0.00 | 0.41 | 0.00 | 98 | 1014.6 | |
| 20260905094516 | 68 | 68 | 1.0 | 3.0 | 0.00 | 0.41 | 0.00 | 98 | 1014.7 |
| 20260905093536 | 68 | 0.0 | 3.0 | 0.00 | 0.41 | 0.00 | 98 | 1014.7 | |
| 20260905092516 | 68 | 0.0 | 0.0 | 0.00 | 0.41 | 0.00 | 98 | 1014.6 | |
| 20260905091516 | 68 | 68 | 2.0 | 4.0 | 0.00 | 0.41 | 0.00 | 98 | 1014.8 |
| 20260905090516 | 68 | 0.0 | 0.0 | 0.00 | 0.41 | 0.00 | 98 | 1014.8 | |
| 20260905085516 | 68 | 0.0 | 0.0 | 0.00 | 0.41 | 0.00 | 98 | 1014.8 | |
| 20260905084516 | 68 | 0.0 | 0.0 | 0.00 | 0.41 | 0.00 | 98 | 1014.9 | |
| 20260905083516 | 69 | 0.0 | 0.0 | 0.00 | 0.41 | 0.00 | 98 | 1014.8 | |
| 20260905082557 | 69 | 0.0 | 0.0 | 0.00 | 0.41 | 0.00 | 98 | 1014.8 | |
| 20260905081536 | 68 | 0.0 | 0.0 | 0.00 | 0.41 | 0.00 | 98 | 1014.8 | |
| 20260905080536 | 68 | 0.0 | 0.0 | 0.00 | 0.41 | 0.00 | 98 | 1014.8 | |
| 20260905075515 | 68 | 0.0 | 0.0 | 0.00 | 0.41 | 0.00 | 97 | 1014.8 | |
| 20260905074536 | 68 | 0.0 | 0.0 | 0.00 | 0.41 | 0.00 | 97 | 1014.8 | |
| 20260905073515 | 68 | 0.0 | 0.0 | 0.00 | 0.41 | 0.00 | 97 | 1014.7 | |
| 20260905072515 | 69 | 0.0 | 0.0 | 0.00 | 0.41 | 0.00 | 98 | 1014.7 | |
| 20260905071515 | 69 | 0.0 | 0.0 | 0.00 | 0.41 | 0.00 | 98 | 1014.8 | |
| 20260905070536 | 69 | 0.0 | 1.0 | 0.00 | 0.41 | 0.00 | 98 | 1014.8 | |
| 20260905065656 | 69 | 45 | 2.0 | 3.0 | 0.00 | 0.41 | 0.00 | 98 | 1014.8 |
| 20260905064535 | 68 | 0.0 | 1.0 | 0.00 | 0.41 | 0.00 | 98 | 1014.8 | |
| 20260905063515 | 68 | 0.0 | 1.0 | 0.00 | 0.41 | 0.00 | 98 | 1014.8 | |
| 20260905062537 | 68 | 0.0 | 0.0 | 0.00 | 0.41 | 0.00 | 98 | 1014.6 | |
| 20260905061537 | 68 | 45 | 1.0 | 4.0 | 0.00 | 0.41 | 0.00 | 98 | 1014.7 |
| 20260905060515 | 68 | 0.0 | 0.0 | 0.00 | 0.41 | 0.00 | 97 | 1014.6 | |
| 20260905055516 | 68 | 0.0 | 0.0 | 0.00 | 0.41 | 0.00 | 97 | 1014.6 | |
| 20260905054515 | 68 | 45 | 1.0 | 3.0 | 0.00 | 0.41 | 0.00 | 97 | 1014.5 |
| 20260905053515 | 68 | 45 | 2.0 | 4.0 | 0.00 | 0.41 | 0.00 | 97 | 1014.6 |
| 20260905052515 | 68 | 270 | 1.0 | 3.0 | 0.00 | 0.41 | 0.00 | 97 | 1014.6 |
| 20260905051535 | 68 | 90 | 2.0 | 4.0 | 0.00 | 0.41 | 0.00 | 96 | 1014.7 |
| 20260905050515 | 68 | 0.0 | 0.0 | 0.00 | 0.41 | 0.00 | 97 | 1014.5 | |
| 20260905045516 | 69 | 0.0 | 0.0 | 0.00 | 0.41 | 0.41 | 97 | 1014.4 | |
| 20260905044516 | 69 | 0.0 | 0.0 | 0.00 | 0.41 | 0.41 | 96 | 1014.5 | |
| 20260905043516 | 69 | 0.0 | 0.0 | 0.00 | 0.41 | 0.41 | 96 | 1014.5 | |
| 20260905042516 | 69 | 68 | 2.0 | 4.0 | 0.00 | 0.41 | 0.41 | 96 | 1014.6 |
| 20260905041536 | 69 | 0.0 | 0.0 | 0.00 | 0.41 | 0.41 | 96 | 1014.2 | |
| 20260905040516 | 69 | 45 | 1.0 | 4.0 | 0.00 | 0.42 | 0.41 | 96 | 1014.4 |
| 20260905035516 | 69 | 68 | 3.0 | 5.0 | 0.00 | 0.43 | 0.41 | 96 | 1014.4 |
| 20260905034536 | 69 | 225 | 2.0 | 3.0 | 0.00 | 0.43 | 0.41 | 96 | 1014.2 |
| 20260905033516 | 69 | 270 | 3.0 | 6.0 | 0.00 | 0.43 | 0.41 | 95 | 1014.3 |
| 20260905032516 | 70 | 0.0 | 0.0 | 0.00 | 0.43 | 0.41 | 93 | 1014.4 | |
| 20260905031516 | 70 | 45 | 2.0 | 3.0 | 0.00 | 0.43 | 0.41 | 92 | 1014.4 |
| 20260905030516 | 71 | 158 | 1.0 | 4.0 | 0.00 | 0.43 | 0.41 | 92 | 1014.4 |
| 20260905025538 | 71 | 0.0 | 0.0 | 0.00 | 0.43 | 0.41 | 92 | 1014.3 | |
| 20260905024516 | 71 | 0.0 | 0.0 | 0.00 | 0.43 | 0.41 | 93 | 1014.2 | |
| 20260905023516 | 71 | 0.0 | 2.0 | 0.00 | 0.43 | 0.41 | 94 | 1014.2 | |
| 20260905022516 | 70 | 45 | 2.0 | 4.0 | 0.00 | 0.43 | 0.41 | 95 | 1014.2 |
| 20260905021516 | 71 | 270 | 2.0 | 3.0 | 0.00 | 0.43 | 0.41 | 94 | 1014.2 |
| 20260905020556 | 72 | 0.0 | 2.0 | 0.00 | 0.43 | 0.41 | 92 | 1014.2 |